Location: Vetriola
(46.0333°N, 11.3000°E)
Time: 03:08:47
(UTC+00:00)

Daily predictions for brighter satellites

Satellite Brightness Start Highest point End
(mag) Time Altitude Azimuth Time Altitude Azimuth Time Altitude Azimuth
Meteor 1-11 Rocket 4.4 00:01:26 10° NNW 00:06:16 48° WNW 00:06:16 48° WNW
Resurs 1-4 Rocket 3.3 00:06:56 10° NNE 00:11:25 32° E 00:11:25 32° E
Cosmos 1777 Rocket 4.4 00:13:00 59° N 00:13:00 59° N 00:17:19 10° NNE
Cosmos 1844 Rocket 3.9 00:12:33 30° WNW 00:13:05 30° NW 00:18:00 10° N
Cosmos 2218 Rocket 4.0 00:09:15 10° N 00:15:27 71° E 00:15:47 69° ESE
Cosmos 2366 rocket 3.9 00:14:36 10° N 00:20:46 75° E 00:21:03 74° ESE
Cosmos 1733 Rocket 4.3 00:22:25 10° N 00:25:12 39° N 00:25:12 39° N
CZ-4C R/B 3.2 00:23:27 10° NW 00:30:35 68° NE 00:38:54 10° SE
Meteor 1-19 Rocket 4.3 00:32:44 68° E 00:32:44 68° E 00:38:05 10° NNE
CZ-2D R/B 2.7 00:27:53 10° NNE 00:33:14 49° E 00:33:21 49° ESE
NOSS 3-3 (A) 3.7 00:35:03 84° SSE 00:35:07 85° SE 00:41:44 10° NE
NOSS 3-3 (C) 3.7 00:35:10 84° SE 00:35:14 84° SE 00:41:50 10° NE
Cosmos 2082 Rocket 2.5 00:31:23 10° NNW 00:36:59 62° ENE 00:38:00 53° ESE
SL-16 R/B 2.7 00:36:28 51° SE 00:37:59 68° ENE 00:44:14 10° N
Cosmos 1833 Rocket 2.9 00:33:02 10° NNW 00:37:45 59° WNW 00:37:45 59° WNW
ADEOS II 3.6 00:35:58 10° NE 00:40:23 27° E 00:41:22 25° ESE
ATLAS 2AS CENTAUR R/B 4.1 00:33:28 10° NNW 00:40:24 38° NE 00:46:50 10° ESE
Cosmos 1862 Rocket 4.3 00:52:44 47° NNW 00:52:44 47° NNW 00:56:00 10° N
Cosmos 1943 Rocket 3.8 00:51:58 21° ESE 00:53:21 24° ESE 00:57:44 10° NE
SJ 16-02 2.2 00:54:21 44° NNW 00:54:21 44° NNW 00:57:46 10° N
Okean 1-7 3.8 00:58:39 46° ENE 00:58:39 46° ENE 01:02:21 10° NNE
Meteor 1-18 Rocket 4.1 00:59:26 76° SW 00:59:49 80° WNW 01:05:36 10° N
Cosmos 2278 Rocket 2.3 01:01:19 60° W 01:01:41 62° WNW 01:07:19 10° NNE
ATLAS 5 CENTAUR R/B 3.1 01:04:48 10° NW 01:08:34 37° W 01:08:34 37° W
Cosmos 1680 Rocket 3.3 01:08:48 10° NNW 01:14:08 79° WSW 01:14:21 77° SW
Meteor 2-9 Rocket 4.4 01:08:39 10° NNW 01:14:21 54° W 01:14:25 54° W
AQUA 3.8 01:10:27 10° NNE 01:15:14 75° ESE 01:15:28 73° SE
USA 234 3.9 01:12:31 10° ENE 01:18:40 42° SE 01:20:19 36° SSE
NPP 3.5 01:13:38 10° NNE 01:19:04 85° WNW 01:19:47 68° SSW
DELTA 2 R/B (1) 4.3 01:24:37 37° SSE 01:24:37 37° SSE 01:28:34 10° ESE
Milstar 3 4.4 01:24:46 19° SSE 01:24:46 19° SSE 01:29:11 10° SE
Helios 1B rocket 3.0 01:20:32 10° N 01:23:58 47° NW 01:23:58 47° NW
Cosmos 2369 Rocket 4.0 01:23:06 16° SE 01:25:56 23° ESE 01:30:14 10° NE
UNK 4.3 01:31:04 43° WNW 01:31:04 43° WNW 01:34:46 10° NNW
Cosmos 990 Rocket 4.0 01:33:48 55° W 01:34:29 61° WNW 01:39:40 10° NNE
Cosmos 1378 3.4 01:36:33 62° E 01:36:33 62° E 01:40:05 10° NNE
Cosmos 2297 3.8 01:36:46 47° S 01:38:25 72° ESE 01:44:07 10° NNE
X-37B 2.4 01:41:18 27° E 01:41:18 27° E 01:42:57 10° E
Gbstr 26 Del rocket 4.4 01:36:15 21° WNW 01:40:10 50° N 01:45:08 10° ENE
ARGOS Delta rocket 3.6 01:37:32 10° NNE 01:41:58 78° E 01:42:43 59° S
Cosmos 2084 3.3 01:47:50 66° W 01:48:11 70° NW 01:52:27 10° NE
Resurs 1-4 Rocket 2.8 01:46:41 10° N 01:51:30 37° WNW 01:52:30 34° W
Cosmos 1937 Rocket 3.4 01:50:18 51° SW 01:51:31 72° WNW 01:56:40 10° NNE
Sich 1 Rocket 3.8 01:47:02 10° N 01:51:39 72° E 01:53:55 29° SSE
Cosmos 2242 Rocket 4.2 01:53:19 39° WNW 01:53:23 39° WNW 01:57:32 10° N
Cosmos 858 Rocket 4.5 01:54:31 48° SW 01:55:54 69° WNW 02:01:07 10° NNE
DELTA 2 DEB (DPAF) 4.2 01:57:25 52° WSW 01:57:40 52° W 02:02:02 10° NNW
Cosmos 1733 4.0 01:54:33 10° N 01:58:14 47° ENE 02:00:34 20° SE
Cosmos 1766 4.3 01:56:32 10° N 02:00:23 45° ENE 02:03:48 13° SSE
Cosmos 1898 Rocket 4.0 01:59:46 37° WSW 02:01:08 45° WNW 02:06:14 10° N
ARIANE 5 R/B 3.5 01:56:58 10° NNE 02:02:00 44° E 02:05:54 16° SSE
IKONOS-2 4.4 02:00:54 46° S 02:02:07 75° WSW 02:06:25 10° NNW
SL-08 R/B 4.1 02:00:33 10° SSE 02:05:17 53° ENE 02:09:57 10° N
OE (NEXTSAT) 4.1 02:05:33 82° SSW 02:05:38 84° S 02:09:07 10° E
Cosmos 372 Rocket 3.9 02:05:10 38° SSW 02:07:12 89° ESE 02:12:21 10° NNE
CZ-2D R/B 3.4 02:08:26 10° N 02:12:59 27° WNW 02:14:41 23° W
CZ-4C R/B 3.6 02:13:25 39° SSW 02:14:47 57° W 02:19:10 10° NNW
Okean 3 3.8 02:15:08 41° WSW 02:16:01 47° WNW 02:20:12 10° N
NOSS 3-4 (A) 4.0 02:10:37 10° NW 02:17:28 53° WSW 02:25:02 10° SSE
NOSS 3-4 (C) 4.0 02:10:43 10° NW 02:17:35 54° WSW 02:25:10 10° SSE
Cosmos 1805 3.1 02:14:37 10° NNW 02:18:33 76° W 02:20:14 32° S
IRS-P3 4.2 02:13:20 10° NNE 02:18:42 79° ESE 02:22:19 21° S
CZ-4C R/B 3.5 02:12:22 10° NW 02:19:03 36° WSW 02:26:29 10° S
CBERS-1 4.1 02:14:49 10° N 02:19:52 62° WNW 02:22:13 31° SW
ADEOS II 2.6 02:15:15 10° N 02:20:14 45° WNW 02:22:19 30° WSW
Cosmos 2082 Rocket 3.5 02:16:25 10° NW 02:19:47 21° W 02:19:47 21° W
SL-16 R/B 3.7 02:21:33 22° W 02:22:07 22° W 02:26:52 10° NW
CZ-3B R/B 4.2 02:08:17 22° SW 02:22:29 69° SE 02:27:48 10° ENE
Cosmos 2298 Rocket 4.5 02:19:32 19° S 02:23:15 60° ESE 02:28:29 10° NNE
Cosmos 1339 Rocket 4.5 02:19:06 23° SSW 02:23:16 76° W 02:29:42 10° N
Meteor 1-28 Rocket 3.9 02:26:38 33° W 02:26:38 33° W 02:29:56 10° NNW
BREEZE-M R/B 4.4 02:25:02 10° WNW 02:29:40 70° NNE 02:40:03 10° E
Cosmos 1300 Rocket 3.7 02:26:24 10° NNW 02:30:44 52° W 02:33:04 25° SSW
SL-4 R/B 4.3 02:34:18 14° S 02:34:18 14° S 02:35:07 10° S
ATLAS 2AS CENTAUR R/B 2.7 02:24:35 10° NW 02:31:52 67° WSW 02:38:33 10° SSE
IRS-1D 4.1 02:27:34 10° N 02:32:25 41° WNW 02:34:54 25° WSW
ADEOS Rocket 3.4 02:28:40 14° S 02:34:07 52° W 02:41:10 10° NNW
CZ-4B R/B 3.3 02:30:31 10° NNE 02:35:19 85° WNW 02:38:45 19° SSW
Cosmos 1943 Rocket 2.4 02:33:30 26° SW 02:36:40 58° WNW 02:42:15 10° NNE
Cosmos 1125 Rocket 4.0 02:33:08 13° S 02:37:45 58° ESE 02:42:55 10° NNE
Cosmos 2151 Rocket 3.6 02:34:47 10° NNW 02:39:18 70° W 02:43:48 10° S
IDEFIX/ARIANE 42P 2.7 02:34:40 10° N 02:39:48 58° WNW 02:43:11 21° SW
DNEPR-1 R/B 4.2 02:35:56 21° SSW 02:40:11 80° SE 02:45:21 10° NE
Okean 2 Rocket 3.3 02:38:54 10° NNW 02:43:10 48° W 02:46:13 18° SSW
USA 305 3.8 02:41:00 10° NW 02:45:11 50° NNE 02:49:21 10° E
Cosmos 2278 Rocket 4.3 02:44:04 10° WNW 02:47:00 14° NW 02:49:57 10° N
Cosmos 1400 Rocket 3.3 02:46:38 10° N 02:50:45 64° ENE 02:54:50 10° SSE
Cosmos 1153 Rocket 4.5 02:45:35 10° N 02:51:52 77° W 02:58:12 10° S
Cosmos 2263 4.3 02:46:55 14° SSW 02:51:53 79° ESE 02:57:40 10° NNE
Cosmos 2221 Rocket 4.2 02:51:52 21° SW 02:54:26 40° WNW 02:58:44 10° N
RESURS DK-1 4.2 02:52:18 10° NNW 02:56:10 35° NE 02:59:59 10° ESE
Cosmos 44 3.5 02:50:45 10° NW 02:56:14 81° SW 03:01:29 10° SSE
CZ-2C R/B 3.0 02:51:41 10° NNE 02:56:27 58° E 03:01:20 10° S
Cosmos 2344 4.4 02:47:32 10° NW 02:56:54 90° SW 03:10:05 10° SE
Cosmos 1842 3.2 02:56:24 14° SSW 02:59:36 68° W 03:03:28 10° N
Cosmos 1900 4.4 02:56:49 18° SW 03:00:38 71° NW 03:05:44 10° NNE
Cosmos 2150 Rocket 4.1 02:56:23 14° SSW 03:01:02 73° WNW 03:06:28 10° NNE
Okean 1 Rocket 3.0 02:57:18 10° N 03:01:48 84° W 03:06:14 10° S
USA 234 3.4 02:55:25 10° NE 03:01:56 69° NNW 03:07:40 14° WSW
USA 306 3.5 02:59:01 10° NW 03:03:17 61° NNE 03:07:32 10° ESE
SL-27 R/B 2.6 03:00:24 10° NNW 03:03:42 69° ENE 03:06:59 10° SSE
MSX 4.1 02:59:55 10° N 03:05:30 52° WNW 03:10:43 12° SW
Meteor 2-20 Rocket 4.5 03:00:30 10° S 03:06:39 87° W 03:12:52 10° N
DELTA 2 R/B (1) 4.4 03:05:23 15° WSW 03:09:08 30° SSW 03:13:56 10° SE
Cosmos 2369 Rocket 2.4 03:04:53 15° SW 03:09:31 58° WNW 03:15:05 10° NNE
Cosmos 1833 4.2 03:04:26 10° NNW 03:10:12 85° WSW 03:15:57 10° SSE
CREW DRAGON DEMO-1 DEB 4.5 03:09:05 10° NW 03:11:29 27° N 03:13:53 10° ENE
Cosmos 1802 Rocket 4.3 03:05:23 10° N 03:11:39 73° E 03:17:48 10° SSE
X-37B 0.6 03:13:35 13° W 03:16:21 67° S 03:19:30 10° ESE
Cosmos 1378 Rocket 3.9 03:14:57 10° SSW 03:19:12 47° WNW 03:23:27 10° N
USA 307 3.2 03:17:27 10° NW 03:21:47 74° NNE 03:26:05 10° ESE
CZ-2C R/B 2.7 03:21:36 10° N 03:25:23 68° WNW 03:29:14 10° SSW
Cosmos 1607 4.4 03:19:05 10° SSW 03:25:26 68° ESE 03:31:54 10° NE
Cosmos 1953 3.7 03:23:16 10° N 03:27:05 43° ENE 03:30:51 10° SSE
Cosmos 1484 Rocket 4.0 03:23:45 10° NNE 03:27:37 45° E 03:31:28 10° S
Gbstr 26 Del rocket 4.2 03:22:28 10° WNW 03:27:54 51° NNE 03:32:19 10° E
Cosmos 2016 Rocket 4.2 03:24:58 10° N 03:31:22 85° E 03:37:41 10° S
FENGYUN 3A 3.9 03:26:01 10° NNE 03:31:26 74° ESE 03:36:48 10° S
Cosmos 1818 3.7 03:26:42 10° NW 03:32:02 53° WSW 03:37:18 10° SSE
COSMOS 2487 4.1 03:31:16 10° N 03:34:29 38° ENE 03:37:40 10° SE
USA 308 3.0 03:30:16 10° WNW 03:34:35 87° NNE 03:38:53 10° ESE
Cosmos 1656 Rocket 3.9 03:31:44 10° SW 03:37:01 55° WNW 03:42:24 10° NNE
Cosmos 2100 Rocket 4.1 03:31:30 10° NNW 03:37:30 55° W 03:43:34 10° SSW
Okean 2 4.1 03:36:32 10° SW 03:40:21 35° WNW 03:44:12 10° N
ARIANE 5 R/B 3.7 03:36:28 10° N 03:40:52 28° WNW 03:45:13 10° WSW
OE (NEXTSAT) 4.3 03:39:41 10° W 03:43:10 79° S 03:46:38 10° ESE
Cosmos 2173 Rocket 4.1 03:37:58 10° NNW 03:43:51 52° W 03:49:45 10° SSW
Cosmos 2084 Rocket 3.5 03:40:44 10° NW 03:45:04 82° SW 03:49:32 10° SE
Cosmos 1758 3.6 03:41:07 10° NNW 03:45:05 50° W 03:49:02 10° S
